Back to catalog

STARLINK-4746

AliveCommunicationsVLEO
NORAD 53846·PAYLOAD·🇺🇸 United States

Launched Sep 19, 2022 from Cape Canaveral Space Force Station

Loading…

Next Passes (next 24 hours)

TLE

FreshSource: CelesTrak SupGP

Epoch: Sep 14, 2026, 14:35 UTC

1 53846C 22114AE  26257.60812500  .00368980  00000+0  22132-1 0  2571
2 53846  53.1589 165.2065 0001330  95.9018 300.9607 15.10268448    18

Track STARLINK-4746 in real time with AllMySat

Download on the App Store